Location: Unspecified
(0.0000°N, 0.0000°E)
Time: 11:08:31
(UTC+00:00)

MIDAS 4 DEB - Pass Details

Date: 17 November 2025
Orbit: 3271 x 3959 km, 95.8° (Epoch: 26 July)

Event Time Altitude Azimuth Distance (km) Brightness Sun altitude
Exits shadow 20:54:18 62° 15° (NNE) 3,939 ? -44.0°
Maximum altitude 20:59:12 89° 101° (ESE) 3,710 ? -45.0°
Drops below altitude 10° 21:19:09 10° 191° (S) 7,040 ? -49.4°
Sets 21:23:43 0° 190° (S) 8,111 ? -50.4°
